Date String (YYYY-MM-DD hh:mm:ss) UTC,Instrument flags,Ambient pressure (hPa),Sample flow (lpm),Bypass flow (lpm),Sample temperature (°C),Ambient temperature (°C),ASC tube jacket temperature (°C),LED temperature (°C),Box temperature (°C),Sample RH (%),Span deviation,Mass concentration (μg/m³),Mass concentration (μg/m³),Mass concentration (μg/m³)
DateTimeUTC,F1_M11,P_M11,Q1_M11,Q2_M11,T1_M11,T2_M11,T3_M11,T4_M11,T5_M11,U1_M11,ZSPAN_M11,X0_M11,X2_M11,X1_M11
2022-09-08 11:00:00,,0827.3,5.00,0.00,30.1,28.5,00.0,38.9,31.9,13.7,0001.8,0025.30,0018.60,0017.60
2022-09-08 11:01:00,,0827.1,5.00,0.00,30.1,28.6,00.0,38.9,31.9,13.5,0001.6,0025.49,0018.53,0017.59
2022-09-08 11:02:00,,0827.0,5.01,0.00,30.1,28.7,00.0,38.9,31.9,13.4,0001.6,0025.38,0018.52,0017.59
2022-09-08 11:03:00,,0827.0,5.01,0.00,30.1,28.8,00.0,38.9,32.0,13.6,0001.5,0025.36,0018.51,0017.59
2022-09-08 11:04:00,,0827.1,5.00,0.00,30.2,28.9,00.0,38.9,32.0,13.5,0001.4,0025.30,0018.50,0017.59
2022-09-08 11:05:00,,0827.0,5.00,0.00,30.2,29.0,00.0,39.0,32.0,13.6,0001.1,0024.87,0018.52,0017.59
2022-09-08 11:06:00,,0826.9,5.01,0.00,30.2,29.0,00.0,39.0,32.0,13.8,0001.1,0024.93,0018.55,0017.57
2022-09-08 11:07:00,,0827.0,4.99,0.00,30.2,29.1,00.0,39.0,32.1,14.0,0001.4,0025.82,0018.55,0017.55
2022-09-08 11:08:00,,0827.1,5.01,0.00,30.2,29.1,00.0,39.0,32.1,14.1,0001.5,0027.21,0018.64,0017.56
2022-09-08 11:09:00,,0826.9,4.99,0.00,30.3,29.2,00.0,39.0,32.1,14.1,0001.8,0027.78,0018.70,0017.56
2022-09-08 11:10:00,,0826.9,5.01,0.00,30.3,29.2,00.0,39.0,32.1,14.1,0002.1,0028.44,0018.79,0017.60
2022-09-08 11:11:00,,0827.0,4.99,0.00,30.3,29.2,00.0,39.0,32.2,14.0,0002.2,0028.07,0018.81,0017.61
2022-09-08 11:12:00,,0826.9,5.01,0.00,30.3,29.3,00.0,39.1,32.2,13.8,0002.4,0027.95,0018.83,0017.61
2022-09-08 11:13:00,,0827.1,5.01,0.00,30.4,29.3,00.0,39.1,32.2,13.3,0002.3,0028.17,0018.85,0017.60
2022-09-08 11:14:00,,0827.3,4.99,0.00,30.4,29.1,00.0,39.1,32.2,12.9,0002.0,0028.45,0018.88,0017.62
2022-09-08 11:15:00,,0826.8,5.00,0.00,30.4,27.7,00.0,39.1,32.0,12.9,0001.8,0028.96,0019.00,0017.69
2022-09-08 11:16:00,,0826.8,5.00,0.00,30.3,26.5,00.0,39.0,31.9,13.1,0002.1,0029.08,0019.09,0017.78
2022-09-08 11:17:00,,0826.8,4.99,0.00,30.2,26.5,00.0,38.9,31.8,13.1,0002.5,0028.68,0019.17,0017.87
2022-09-08 11:18:00,,0826.9,5.00,0.00,30.1,26.8,00.0,38.9,31.7,13.2,0002.5,0028.34,0019.26,0017.96
2022-09-08 11:19:00,,0826.9,5.01,0.00,30.0,27.2,00.0,38.9,31.6,13.3,0002.4,0027.92,0019.34,0018.07
2022-09-08 11:20:00,,0827.0,5.00,0.00,30.0,27.5,00.0,38.8,31.6,13.3,0002.4,0027.38,0019.41,0018.18
2022-09-08 11:21:00,,0827.1,5.00,0.00,30.0,27.8,00.0,38.8,31.6,13.1,0002.3,0026.55,0019.48,0018.27
2022-09-08 11:22:00,,0826.9,4.99,0.00,29.9,28.0,00.0,38.8,31.7,13.2,0002.5,0026.19,0019.52,0018.35
2022-09-08 11:23:00,,0827.1,5.00,0.00,30.0,28.2,00.0,38.8,31.7,13.1,0002.5,0025.81,0019.52,0018.38
2022-09-08 11:24:00,,0826.8,5.01,0.00,30.0,28.4,00.0,38.8,31.7,13.0,0002.4,0025.40,0019.50,0018.42
2022-09-08 11:25:00,,0826.8,5.01,0.00,30.0,28.5,00.0,38.8,31.7,12.9,0002.6,0025.68,0019.52,0018.42
2022-09-08 11:26:00,,0826.8,5.01,0.00,30.0,28.6,00.0,38.8,31.7,12.9,0003.0,0025.88,0019.50,0018.38
2022-09-08 11:27:00,,0826.7,5.01,0.00,30.0,28.7,00.0,38.8,31.8,12.9,0003.4,0026.47,0019.41,0018.30
2022-09-08 11:28:00,,0826.8,4.98,0.00,30.0,28.8,00.0,38.8,31.9,12.9,0003.2,0026.36,0019.34,0018.24
2022-09-08 11:29:00,,0826.8,5.01,0.00,30.0,28.8,00.0,38.8,31.9,12.9,0003.1,0025.59,0019.25,0018.21
2022-09-08 11:30:00,,0826.8,4.99,0.00,30.1,28.9,00.0,38.8,31.9,12.8,0003.2,0025.08,0019.16,0018.16
2022-09-08 11:31:00,,0826.8,5.01,0.00,30.1,29.0,00.0,38.8,31.9,13.2,0003.1,0024.91,0019.11,0018.12
2022-09-08 11:32:00,,0826.8,5.00,0.00,30.1,29.0,00.0,38.8,32.0,13.2,0003.2,0025.49,0019.11,0018.12
2022-09-08 11:33:00,,0826.8,4.99,0.00,30.1,29.0,00.0,38.9,32.0,12.9,0003.0,0025.77,0019.08,0018.11
2022-09-08 11:34:00,,0826.8,5.02,0.00,30.1,29.1,00.0,38.9,32.0,12.7,0002.7,0026.64,0019.04,0018.09
2022-09-08 11:35:00,,0826.8,5.00,0.00,30.2,29.1,00.0,38.9,32.0,12.6,0002.6,0026.68,0019.06,0018.08
2022-09-08 11:36:00,,0826.8,5.00,0.00,30.2,29.2,00.0,38.9,32.1,12.6,0002.7,0026.20,0019.08,0018.07
2022-09-08 11:37:00,,0826.9,5.00,0.00,30.2,29.2,00.0,38.9,32.1,12.6,0002.8,0026.07,0019.06,0018.08
2022-09-08 11:38:00,,0826.9,4.99,0.00,30.2,29.2,00.0,39.0,32.1,12.8,0002.7,0025.35,0019.11,0018.11
2022-09-08 11:39:00,,0827.2,5.01,0.00,30.3,29.2,00.0,39.0,32.1,12.9,0002.5,0025.40,0019.09,0018.12
2022-09-08 11:40:00,,0826.9,4.99,0.00,30.3,29.3,00.0,39.0,32.2,13.0,0002.4,0025.39,0019.07,0018.14
2022-09-08 11:41:00,,0827.1,5.00,0.00,30.3,29.3,00.0,39.0,32.2,13.4,0002.3,0025.35,0019.08,0018.15
2022-09-08 11:42:00,,0827.2,5.01,0.00,30.4,29.3,00.0,39.1,32.2,13.9,0002.0,0025.26,0019.13,0018.17
2022-09-08 11:43:00,,0826.9,4.99,0.00,30.4,29.3,00.0,39.1,32.2,13.9,0002.0,0025.12,0019.10,0018.12
2022-09-08 11:44:00,,0826.8,4.99,0.00,30.4,28.2,00.0,39.1,32.2,13.9,0001.9,0026.09,0019.12,0018.11
2022-09-08 11:45:00,,0826.8,5.01,0.00,30.3,27.2,00.0,39.0,32.0,13.8,0002.1,0025.61,0019.24,0018.16
2022-09-08 11:46:00,,0826.8,5.00,0.00,30.3,27.1,00.0,39.0,32.0,13.5,0002.0,0026.43,0019.28,0018.17
2022-09-08 11:47:00,,0826.8,5.00,0.00,30.2,27.4,00.0,39.0,31.9,13.5,0002.0,0027.96,0019.31,0018.17
2022-09-08 11:48:00,,0826.8,5.00,0.00,30.1,27.7,00.0,38.9,31.8,13.7,0001.9,0028.27,0019.32,0018.17
2022-09-08 11:49:00,,0826.7,5.01,0.00,30.1,28.0,00.0,38.9,31.8,13.7,0001.8,0028.98,0019.33,0018.14
2022-09-08 11:50:00,,0826.8,5.00,0.00,30.1,28.2,00.0,38.9,31.9,13.9,0001.8,0029.58,0019.37,0018.10
2022-09-08 11:51:00,,0826.7,5.00,0.00,30.1,28.4,00.0,38.9,31.9,13.6,0002.1,0029.98,0019.43,0018.08
2022-09-08 11:52:00,,0826.7,5.01,0.00,30.1,28.5,00.0,38.9,31.9,13.1,0002.2,0030.08,0019.44,0018.06
2022-09-08 11:53:00,,0826.7,4.99,0.00,30.1,28.7,00.0,38.9,31.9,12.8,0002.6,0030.51,0019.40,0018.05
2022-09-08 11:54:00,,0826.7,4.99,0.00,30.1,28.8,00.0,38.9,31.9,13.0,0002.0,0030.60,0019.37,0018.06
2022-09-08 11:55:00,,0826.7,5.01,0.00,30.1,28.9,00.0,38.9,32.0,13.6,0001.7,0029.84,0019.40,0018.07
2022-09-08 11:56:00,,0826.7,4.99,0.00,30.2,28.9,00.0,38.9,32.0,13.2,0001.7,0030.33,0019.37,0018.03
2022-09-08 11:57:00,,0826.7,5.01,0.00,30.2,29.0,00.0,38.9,32.0,13.0,0001.7,0029.73,0019.32,0018.00
2022-09-08 11:58:00,,0826.7,4.99,0.00,30.2,29.0,00.0,38.9,32.0,12.7,0002.0,0028.02,0019.29,0018.00
2022-09-08 11:59:00,,0826.7,5.02,0.00,30.2,29.1,00.0,39.0,32.0,12.7,0002.0,0027.17,0019.20,0017.97
